#timestamp,LO_Frequency,Hit,StdDev 
1549828815.1,286046998.6,N
1549828816.0,286046998.6,N
1549828835.8,286046996.9,N
1549828855.6,286046996.9,N
1549828875.5,286046996.7,N
1549828895.3,286046999.5,N
1549828915.1,286046996.8,N
1549828935.9,286046997.3,N
1549828955.7,286046997.6,N
1549828975.5,286046995.8,N
1549828995.4,286046995.8,N
1549829015.2,286046998.0,N
1549829035.1,286046995.5,N
1549829036.0,286046995.5,N
1549829055.8,286046995.5,N
1549829075.6,286046995.4,N
1549829095.5,286046993.3,Y
1549829115.3,286046997.0,P
1549829135.1,286046999.6,N
1549829155.9,286046999.5,N
1549829175.7,286046999.6,N
1549829195.6,286046997.4,N
1549829215.4,286046996.9,N
1549829235.2,286046996.7,N
1549829255.1,286046999.2,N
1549829256.0,286046999.2,N
1549829275.8,286046996.9,N
1549829295.6,286046998.3,N
1549829315.5,286046996.7,N
1549829335.3,286046998.3,N
1549829355.2,286046996.5,Y
1549829375.9,286046999.9,P
1549829395.7,286047000.0,N
1549829415.6,286047000.4,N
1549829435.4,286047002.5,N
1549829455.2,286047002.3,N
1549829475.1,286047004.4,N
1549829476.0,286047004.4,N
1549829495.8,286047003.4,N
1549829515.7,286047006.0,N
1549829535.5,286047003.0,N
1549829555.3,286047004.1,N
1549829575.2,286047001.4,N
1549829595.0,286047002.2,N
1549829595.9,286047002.2,N
1549829615.7,286046999.9,N
1549829635.6,286047000.0,N
1549829655.4,286047002.0,N
1549829675.3,286046999.7,N
1549829695.1,286047000.9,N
1549829696.0,286047000.9,N
1549829715.8,286047000.7,N
1549829735.7,286046998.6,N
1549829755.5,286046998.3,N
1549829775.3,286047001.2,N
1549829795.2,286046998.2,N
1549829815.0,286046998.1,N
1549829815.9,286046998.1,N
1549829835.8,286047004.0,N
1549829855.6,286046999.8,N
1549829875.4,286047002.3,N
1549829895.3,286047000.2,N
1549829915.1,286047000.5,N
1549829935.8,286047000.5,N
1549829955.7,286047001.2,N
1549829975.5,286046998.3,N
1549829995.4,286046998.5,N
1549830015.2,286046998.9,N
1549830035.0,286046999.1,N
1549830035.9,286046999.1,N
1549830055.8,286046999.6,N
1549830075.6,286046998.7,N
1549830095.4,286047000.7,N
1549830115.3,286046998.2,N
1549830135.1,286046995.4,Y
1549830155.9,286046994.3,P
1549830175.7,286046992.7,N
1549830195.5,286046994.4,N
1549830215.4,286046994.5,N
1549830235.2,286046995.6,N
1549830255.0,286046997.4,N
1549830255.9,286046997.4,N
1549830275.8,286046997.2,N
1549830295.6,286046997.9,N
1549830315.5,286046997.4,N
1549830335.3,286046997.6,N
1549830355.1,286046996.5,N
1549830375.9,286046996.8,N
1549830395.7,286046997.6,N
1549830415.5,286046999.1,N
1549830435.4,286046998.5,N
1549830455.2,286046998.1,N
1549830475.0,286046998.9,N
1549830476.0,286046998.9,N
1549830495.8,286046998.3,N
1549830515.6,286046996.7,N
1549830535.5,286046997.8,N
1549830555.3,286046995.7,N
1549830575.1,286046996.3,N
1549830595.9,286046995.7,N
1549830615.7,286046997.9,N
1549830635.6,286046995.1,N
1549830655.4,286046995.4,N
1549830675.2,286046995.3,N
1549830695.1,286046995.3,N
1549830696.0,286046995.3,Y
1549830715.8,286046998.3,P
1549830735.6,286047000.9,N
1549830755.5,286046999.9,N
1549830775.3,286047001.1,N
1549830795.1,286047000.5,N
1549830815.9,286047002.4,N
1549830835.7,286047001.2,N
1549830855.6,286047000.6,N
1549830875.4,286047000.5,N
1549830895.2,286047000.4,N
1549830915.1,286047002.3,N
1549830916.0,286047002.3,N
1549830935.8,286047001.0,N
1549830955.6,286046998.5,N
1549830975.5,286047001.0,N
1549830995.3,286047000.7,N
1549831015.1,286046999.5,N
1549831035.9,286046997.0,N
1549831055.7,286047011.9,Y
1549831075.6,286046998.7,P
1549831095.4,286046998.9,N
1549831115.2,286047000.8,N
1549831135.1,286046998.6,N
1549831136.0,286046998.6,N
1549831155.8,286046998.3,N
1549831175.6,286047001.2,N
1549831195.5,286047001.8,N
1549831215.3,286047002.4,N
1549831235.2,286047000.1,N
1549831255.9,286046999.8,N
1549831275.7,286047001.4,N
1549831295.6,286047003.2,N
1549831315.4,286047004.6,Y
1549831335.2,286047007.4,P
1549831355.1,286047004.5,N
1549831356.0,286047004.5,N
1549831375.8,286047007.5,N
1549831395.7,286047004.8,N
1549831415.5,286047007.1,N
1549831435.3,286047007.0,N
1549831455.2,286047005.5,N
1549831475.0,286047005.7,N
1549831475.9,286047005.7,N
1549831495.7,286047003.9,N
1549831515.6,286047003.2,N
1549831535.4,286047003.2,N
1549831555.3,286047001.4,N
1549831575.1,286047004.3,N
1549831576.0,286047004.3,N
1549831595.8,286047004.3,N
1549831615.7,286047005.2,N
1549831635.5,286047005.0,N
1549831655.3,286047007.5,Y
1549831675.2,286047001.7,P
1549831695.0,286047002.1,N
1549831695.9,286047002.1,N
1549831715.8,286047002.5,N
1549831735.6,286047002.8,N
1549831755.4,286046998.1,N
1549831775.3,286046999.4,N
1549831795.1,286046999.4,N
1549831815.8,286046996.6,N
1549831835.7,286046996.9,N
1549831855.5,286046997.4,N
1549831875.4,286046999.1,N
1549831895.2,286046997.5,N
1549831915.0,286046995.4,N
1549831915.9,286046995.4,N
1549831935.8,286046997.3,N
1549831955.6,286047011.9,Y
1549831975.4,286046997.2,P
1549831995.3,286046998.0,N
1549832015.1,286046998.0,N
1549832035.9,286046995.6,Y
1549832055.7,286046998.7,P
1549832075.5,286046997.7,P
1549832095.4,286046997.6,P
1549832115.2,286046999.5,N
1549832135.1,286046997.6,Y
1549832136.0,286046997.6,P
1549832155.8,286046998.8,P
1549832175.6,286047001.5,N
1549832195.5,286047001.9,N
1549832215.3,286047005.5,Y
1549832235.1,286047006.9,P
1549832255.9,286047007.3,N
1549832275.7,286047006.6,N
1549832295.6,286047011.9,Y
1549832315.4,286047002.5,P
1549832335.2,286046999.8,N
1549832355.1,286047000.7,N
1549832356.0,286047000.7,N
1549832375.8,286047002.5,N
1549832395.6,286047002.3,N
